Powrót do katalogu

COSMOS 970 DEB

AktywnyLEO
NORAD 10885·DEBRIS·🇷🇺 Russia

Wystrzelony Dec 21, 1977 z Baikonur Cosmodrome

Loading…

Następne Przeloty (najbliższe 24 godziny)

TLE

ŚwieżeSource: Space-Track

Epoka: Sep 14, 2026, 07:14 UTC

1 10885U 77121AG  26257.30196988  .00000611  00000-0  76771-3 0  9995
2 10885  65.7908 202.8191 0064787 339.9488 172.4584 13.70486959419757

Śledź COSMOS 970 DEB w czasie rzeczywistym z AllMySat

Download on the App Store